Location: LDNL
(36.4545°S, 141.6685°E)
Time: 15:35:16
(UTC+10:00)

Hubble Space Telescope - Pass Details

Date: 30 June 2022
Orbit: 532 x 535 km, 28.5° (Epoch: 10 August)

Event Time Altitude Azimuth Distance (km) Brightness Sun altitude
Exits shadow 05:35:38 27° 7° (N) 1,063 2.4 -25.4°
Drops below altitude 10° 05:38:56 10° 60° (ENE) 1,790 4.4 -24.8°
Sets 05:41:27 0° 72° (ENE) 2,681 5.7 -24.3°
